Hourly Data Report for October 31, 2013

All times are specified in Local Standard Time (LST). Add 1 hour to adjust for Daylight Saving Time where and when it is observed.

ST LEONARD CS
NEW BRUNSWICK

47°09'28.050" N
67°49'55.014" W
245.00 m
810I001
71019
WIY

Download Data

Hourly Data (October 2013)
Hourly Data Report for October 31, 2013
Temp Definition
°C
Dew Point Temp Definition
°C
Rel Hum Definition
%
Wind Dir Definition
10's deg

Wind Spd Definition
km/h
Visibility Definition
km
Stn Press Definition
kPa
Hmdx Definition


Wind Chill Definition


Weather Definition


TIME
00:00 -2.0 -5.3 78 22 4   98.99   -3 LegendNANA
01:00 -2.7 -5.2 83 23 4   99.01   -4 LegendNANA
02:00 -2.6 -5.0 84 21 6   99.06   -5 LegendNANA
03:00 -2.8 -4.9 85 21 4   99.07   -4 LegendNANA
04:00 -3.0 -4.8 87 22 2   99.02   -4 LegendNANA
05:00 -2.8 -4.5 88 21 6   99.06   -5 LegendNANA
06:00 -3.3 -4.7 90 21 6   99.01   -6 LegendNANA
07:00 -5.2 -5.4 98 14 4   99.06   -7 LegendNANA
08:00 -3.2 -4.5 91 16 6   99.09   -6 LegendNANA
09:00 -0.5 -2.7 85 16 13   99.04   -5 LegendNANA
10:00 1.4 -1.9 79 20 15   99.01     LegendNANA
11:00 2.7 -1.3 75 21 19   98.95     LegendNANA
12:00 4.4 -1.3 66 19 20   98.83     LegendNANA
13:00 4.1 -1.0 69 19 20   98.77     LegendNANA
14:00 4.5 -1.0 67 17 20   98.67     LegendNANA
15:00 4.1 -1.2 68 15 19   98.51     LegendNANA
16:00 4.1 -0.5 72 17 17   98.44     LegendNANA
17:00 4.4 0.5 76 17 20   98.32     LegendNANA
18:00 4.2 2.2 87 17 22   98.22     LegendNANA
19:00 3.5 2.6 94 15 19   98.10     LegendNANA
20:00 3.8 3.3 97 16 19   97.91     LegendNANA
21:00 5.1 4.6 97 17 20   97.72     LegendNANA
22:00 6.3 5.8 97 17 20   97.61     LegendNANA
23:00 7.5 7.1 97 18 19   97.52     LegendNANA

Notes on Data Quality.

Legend

  • E = Estimated
  • M = Missing
  • NA = Not Available
  • ‡ = Partner data that is not subject to review by the National Climate Archives
Date modified: